Location: ???????
(55.9142°N, 37.8256°E)
Time: 08:22:16
(UTC+00:00)

Cosmos 1536 - Visible Passes

Search period start: 17 May 2025 00:00
Search period end: 27 May 2025 00:00
Orbit: 497 x 517 km, 82.5° (Epoch: 16 May)

Date Brightness Start Highest point End Pass type
(mag) Time Alt. Az. Time Alt. Az. Time Alt. Az.
17 May 3.7 18:55:56 10° N 18:59:28 34° ENE 19:02:42 11° SE visible
17 May 4.2 20:31:36 10° NNW 20:34:57 29° W 20:37:32 14° SW visible
18 May 4.0 18:38:21 10° N 18:41:42 28° ENE 18:45:01 10° SE visible
18 May 3.9 20:13:48 10° NNW 20:17:19 36° W 20:20:07 14° SSW visible
19 May 3.5 19:56:01 10° NNW 19:59:41 44° W 20:02:42 14° SSW visible
20 May 3.2 19:38:15 10° NNW 19:42:01 56° W 19:45:18 13° S visible
21 May 2.9 19:20:30 10° NNW 19:24:19 70° W 19:27:53 11° S visible
22 May 2.7 19:02:45 10° NNW 19:06:36 88° W 19:10:23 10° S visible
22 May 5.4 20:40:10 10° WNW 20:41:28 11° W 20:42:46 10° W visible
23 May 2.7 18:45:02 10° N 18:48:52 75° ENE 18:52:38 10° SSE visible
23 May 5.2 20:21:49 10° NW 20:23:51 14° W 20:25:53 10° WSW visible
24 May 5.1 20:03:42 10° NW 20:06:14 17° W 20:08:44 10° SW visible
25 May 4.9 19:45:41 10° NW 19:48:35 21° W 19:51:26 10° SW visible
26 May 4.6 19:27:44 10° NNW 19:30:54 25° W 19:34:02 10° SW visible
